Breeders Fall Classic - INVENTORY--ONLY BIRDS OUT

Station: INVENTORY - T Race

Distance: 10 Miles    

Release: 20-May-2019 10:35

Weather Release:    Arrival:

Wind at Release:     Wind at Arrival:

Temp at Release: °    Temp at Arrival: °

Lofts: 94

Birds: 412

Clocked: 315

Good Luck to Everyone!
Drops Pos Breeder Pigeon Name Color Sex Ent Arrival Speed To Win Eligible RedGriz
1 King Conch Loft - ON 0119-CU19-KING BC H 1 11:38:40.50 276.404 00:00:00 Yes
2 Jed Loft - LA 0911-AU19-JED Call 911 BB H 1 11:38:47.10 275.927 00:00:07 Yes
3 Bushmaster & Nieves Loft - PR 4013-AU19-ARPU Cojeme si puedes BBWF H 1 11:38:59.90 275.007 00:00:19 Yes
4 Thunder Birds/Rodriguez Breeding Loft - TX 19051-AU19-WIN Voltes V BC H 1 11:39:11.80 274.158 00:00:31 Yes
5 Kolvenbag & Son - PA 1344-IF19-KOLV BC 0 1 11:39:15.90 273.866 00:00:35 Yes
6 Columba Loft - GA 9164-AU19-LYCH BB H 1 11:39:29.30 272.918 00:00:49 Yes
7 Silicon Valley Syndicates - CA 19005-AU19-SVS BB H 1 11:39:37.20 272.361 00:00:57 Yes
8 De La O/Sino/Baro - CA 9012-AU19-COOK DC H 1 11:39:45.00 271.815 00:01:05 Yes
9 Genesis Syndicate Loft - AZ 0054-AU19-GENS RC H 1 11:39:54.60 271.145 00:01:14 Yes
10 Cloux Loft - CO 9714-AU19-FH BB H 1 11:39:58.10 270.901 00:01:18 Yes
11 A P C Loft - TX 19137-AU19-APC BB H 1 11:40:05.70 270.374 00:01:25 Yes
12 Mike Hines - SD 9163-AU19-GPC RC H 1 11:40:20.70 269.340 00:01:40 Yes
13 Kolvenbag & Son - PA 1328-IF19-KOLV DC H 2 11:40:21.60 269.278 00:01:41 Yes
14 3 Stars & A Sun Loft - TX 0413-AU19-STAR BCWF H 1 11:40:22.20 269.237 00:01:42 Yes
15 J & M Partridge Loft - CA 1604-AU19-PASO BB H 1 11:40:30.60 268.661 00:01:50 Yes
16 Clear Springs Loft - FL 0073-AU19-WARD RC H 1 11:40:32.90 268.504 00:01:52 Yes
17 Kai Loft - PA 1011-IF19-KAI BC H 1 11:40:33.80 268.443 00:01:53 Yes
18 K T Loft - IN 0419-AU19-KTLF BB H 1 11:40:37.50 268.190 00:01:57 Yes
19 Youngblood Loft - UT 0424-AU19-UCA BB H 1 11:40:37.90 268.163 00:01:57 Yes
20 Genesis Syndicate Loft - AZ 0772-AU19-GENS BBWF H 2 11:40:46.10 267.606 00:02:06 Yes
21 Ivy Calvin - AZ 0006-IF19-PSC RC H 1 11:40:58.80 266.747 00:02:18 Yes
22 Dan & Greg Coury - AZ 13930-AU19-JEDD DC H 1 11:41:03.50 266.431 00:02:23 Yes
23 Rodney Morris - ON 0103-CU19-KING BBWF H 1 11:41:03.90 266.404 00:02:23 Yes
24 Marengo Creek Farms - AL 3278-AU19-MCF BB H 1 11:41:04.70 266.351 00:02:24 Yes
25 Bushmaster & Nieves Loft - PR 6811-AU19-ARPU Try Again BCWF H 2 11:41:10.30 265.975 00:02:30 Yes
26 King Brand Syndicate - IA 66511-AU19-ARPU BBWF H 1 11:41:11.60 265.888 00:02:31 Yes
27 Kastle Loft - KY 1929-AU19-KASL Kiss Me BB H 1 11:41:19.80 265.340 00:02:39 Yes
28 Red Ass Ranch - TX 0404-AU19-RAR BBWF H 1 11:41:43.40 263.776 00:03:03 Yes
29 Crescendo Loft - NM 4727-AU19-VITA BB H 1 11:41:45.20 263.657 00:03:05 Yes
30 Kai Loft - PA 1012-IF19-KAI DC H 2 11:41:45.60 263.631 00:03:05 Yes
31 Si Se Puede Loft - TX 1918-AU19-SISE BBWF H 1 11:41:46.70 263.559 00:03:06 Yes
32 K T Loft - IN 0407-AU19-KTLF BB H 2 11:41:47.70 263.493 00:03:07 Yes
33 Jimmy Zheng Loft - MS 0954-AU19-ZHEN BC H 1 11:41:48.10 263.466 00:03:08 Yes
34 King Brand Syndicate - IA 66508-AU19-ARPU BB H 2 11:41:49.00 263.407 00:03:09 Yes
35 Elton Dinga - TX 16131-AU19-AA Hebberecht x Schaerlaecke BC H 1 11:41:50.60 263.302 00:03:10 Yes
36 Lin's Loft - CT 0007-AU19-LIN CHSP H 1 11:41:52.90 263.151 00:03:12 Yes
36 Avelino Loft - CA 0323-AU19-HAN BB H 1 11:41:52.90 263.151 00:03:12 Yes
38 Walters Loft - NJ 27506-AU19-ARPU DC H 1 11:41:56.10 262.942 00:03:16 Yes
39 De La O/Sino/Baro - CA 9015-AU19-COOK BB H 2 11:41:58.50 262.785 00:03:18 Yes
40 Columba Loft - GA 9283-AU19-LYCH BB H 2 11:42:00.00 262.687 00:03:19 Yes
41 Andy Owen - GA 1051-AU19-CGA BBPW H 1 11:42:00.20 262.673 00:03:20 Yes
42 Marengo Creek Farms - AL 3260-AU19-MCF BB H 2 11:42:00.70 262.641 00:03:20 Yes
43 Wingsnwindloft - NY 9142-AU19-BISN BBWF H 1 11:42:01.20 262.608 00:03:21 Yes
44 Drama Queen Loft - TX 0937-AU19-GCI BB H 1 11:42:01.40 262.595 00:03:21 Yes
45 Kai Loft - PA 1009-IF19-KAI BBPW H 3 11:42:02.10 262.549 00:03:22 Yes
46 Avelino Loft - CA 0327-AU19-HAN BB H 2 11:42:03.10 262.484 00:03:23 Yes
47 King Conch Loft - ON 0802-AU19-SMCC BB H 2 11:42:04.80 262.373 00:03:24 Yes
48 Sheriff & Fabian - PR 3384-IF19-UCPR Silver Phantom RC H 1 11:42:07.10 262.223 00:03:27 Yes
49 Sheriff & Fabian - PR 3375-IF19-UCPR Kanibalizem BB H 2 11:42:08.40 262.139 00:03:28 Yes
50 Genesis Syndicate Loft - AZ 0025-AU19-GENS BB H 3 11:42:10.20 262.022 00:03:30 Yes
51 Crazy Als Lofts - CO 5534-AU19-CRAZ BB H 1 11:42:13.00 261.840 00:03:33 Yes
52 Sunshine Loft 2 - SC 0123-AU19-PAK Silk - Islamabad BBPN C 1 11:42:13.60 261.801 00:03:33 Yes
53 Nemelka Racing Pigeon Loft - UT 9000-AU19-NRPL Nitty Gritty(Florian x S) BB C 1 11:42:14.10 261.768 00:03:34 Yes
54 Double J Racing Loft - OH 0003-AU19-DJRL BB H 1 11:42:14.50 261.742 00:03:34 Yes
55 Andy Owen - GA 1057-AU19-CGA BB H 2 11:42:15.90 261.652 00:03:35 Yes
56 98 M J - PA 0037-AU19-AJLF GRIZ H 1 11:42:16.50 261.613 00:03:36 Yes
57 Lone Oak Loft - TX 0116-AU19-LOL PK-S.Kiara-4 BB H 1 11:42:17.30 261.561 00:03:37 Yes
58 Hale Nūnū - VA 0004-IF19-NUNU BB H 1 11:42:17.50 261.548 00:03:37 Yes
59 Kai Loft - PA 1007-IF19-KAI BC H 4 11:42:20.70 261.341 00:03:40 Yes
60 Mike Hines - SD 9156-AU19-GPF BCPW H 2 11:42:20.80 261.334 00:03:40 Yes
61 King Conch Loft - ON 0131-CU19-KING BB H 3 11:42:22.60 261.218 00:03:42 Yes
62 Relax /Rolex Loft - CA 80728-AU19-MAN BC H 1 11:42:24.60 261.089 00:03:44 Yes
63 Eastern Pearl Loft - VA 0568-AU19-EPL 🈚️量568=051x263 BBPW H 1 11:42:25.20 261.050 00:03:45 Yes
64 - 1347-IF19-KLOV 3 11:42:26.90 260.940 00:03:46
65 Greek Connection - SC 1218-AU19-GREK 1153xGR BCWF H 1 11:42:36.00 260.355 00:03:56 Yes
66 Greek Connection - SC 1409-AU19-GREK 553xCICIO57 BB H 2 11:42:37.10 260.284 00:03:57 Yes
67 Dehesa Valley Classic - CA 19004-AU19-PUEB BB H 1 11:42:37.70 260.246 00:03:57 Yes
68 Gold Country Challenge - CA 0244-AU19-HANG BBSP H 1 11:42:38.50 260.195 00:03:58 Yes
69 Wingsnwindloft - NY 9166-AU19-BISN SILV H 2 11:42:38.90 260.169 00:03:58 Yes
70 Linda Loft - PA 6085-IF19-GPC BB H 1 11:42:39.00 260.163 00:03:58 Yes
71 De La O/Sino/Baro - CA 9006-AU19-COOK DCPD H 3 11:42:39.40 260.137 00:03:59 Yes
72 Sheriff & Fabian - PR 3347-IF19-UCPR Don't Look Back BB H 3 11:42:39.80 260.111 00:03:59 Yes
73 Lone Oak Loft - TX 0115-AU19-LOL PK-S.Kiara-3 BB H 2 11:42:40.30 260.079 00:04:00 Yes
74 Walters Loft - NJ 27516-AU19-ARPU BC H 2 11:42:40.70 260.054 00:04:00 Yes
75 Hunsicker Ranch - CA 18518-AU19-SYV DC H 1 11:42:41.40 260.009 00:04:01 Yes
76 Smoke And Fire - TX 2401-AU19-TEXS BB H 1 11:42:42.80 259.919 00:04:02 Yes
77 3 Stars & A Sun Loft - TX 0412-AU19-STAR BBPW H 2 11:42:43.20 259.894 00:04:03 Yes
78 Linda Loft - PA 6086-IF19-GPC BC H 2 11:42:44.60 259.804 00:04:04 Yes
79 Drama Queen Loft - TX 0928-AU19-GCI BB H 2 11:42:45.00 259.779 00:04:04 Yes
80 Galaxy - FL 0056-AU19-XXX BC H 1 11:42:45.40 259.753 00:04:05 Yes
81 Bruce Daehn - FL 0127-AU19-NWFI DCPW H 1 11:42:45.90 259.721 00:04:05 Yes
81 Wolf Den & Family Loft - IL 0018-AU19-FAM BBWF H 1 11:42:45.90 259.721 00:04:05 Yes
83 Eastern Pearl Loft - VA 0562-AU19-EPL 🈚️量562=359x488 BB H 2 11:42:46.80 259.664 00:04:06 Yes
83 Columba Loft - GA 9284-AU19-LYCH BB H 3 11:42:46.80 259.664 00:04:06 Yes
85 Dons Loft - SC 0464-IF19-CVR BB H 1 11:42:47.50 259.619 00:04:07 Yes
86 Dehesa Valley Classic - CA 19024-AU19-PUEB BC H 2 11:42:48.50 259.555 00:04:08 Yes
87 Galaxy - FL 0057-AU19-XXX BC H 2 11:42:49.70 259.479 00:04:09 Yes
88 Red Ass Ranch - TX 0414-AU19-RAR BB H 2 11:42:50.70 259.415 00:04:10 Yes
89 Apple Cup - WA 2502-AU19-YAK BC H 1 11:42:51.30 259.377 00:04:11 Yes
90 Greek Connection - SC 1215-AU19-GREK 529x527 BB H 3 11:42:52.00 259.332 00:04:12 Yes
91 Era Loft - NY 0605-AU19-BUF DCSP H 1 11:42:52.70 259.287 00:04:12 Yes
91 Country Home Aviary - NC 9126-AU19-CV Green 9126 BBWF C 1 11:42:52.70 259.287 00:04:12 Yes
93 Dons Loft - SC 0465-IF19-CVR WHGZ H 2 11:42:53.50 259.237 00:04:13 Yes
94 Spirit Loft - NE 2710-AU19-OMHA BB H 1 11:42:53.90 259.211 00:04:13 Yes
95 98 M J - PA 0032-AU19-AJLF WHGZ H 2 11:42:55.20 259.128 00:04:15 Yes
96 Andy Owen - GA 1053-AU19-CGA BBPW H 3 11:42:55.80 259.090 00:04:15 Yes
97 America Loft - IN 0003-AU19-AMER BBWF H 1 11:42:56.60 259.039 00:04:16 Yes
98 King Conch Loft - ON 0116-CU19-KING BBWF H 4 11:42:58.90 258.893 00:04:18 Yes
98 Emerson & Donnelly - SC 0221-AU19-MERL BB H 1 11:42:58.90 258.893 00:04:18 Yes
100 Holts Loft - NC 0104-AU19-THR DC H 1 11:43:00.20 258.811 00:04:20 Yes

There are 501 bird records

Note: These Race Results are unofficial and subject to change until verified by the Race Committee and declared final.